| time (UTC) | temp F | wind direction | speed MPH | gust MPH | rain 1hr in | rain 24hr in | rain mn in | humidity % | barometer mb |
| 20260507045528 | 54 | 56 | 7.0 | 8.0 | 0.00 | 0.00 | 0.00 | 85 | 1017.5 |
| 20260507045029 | 54 | 52 | 6.0 | 9.0 | 0.00 | 0.00 | 0.00 | 84 | 1017.5 |
| 20260507044528 | 54 | 58 | 7.0 | 9.0 | 0.00 | 0.00 | 0.00 | 84 | 1017.6 |
| 20260507044028 | 55 | 49 | 7.0 | 9.0 | 0.00 | 0.00 | 0.00 | 84 | 1017.6 |
| 20260507043528 | 55 | 50 | 7.0 | 8.0 | 0.00 | 0.00 | 0.00 | 83 | 1017.7 |
| 20260507043028 | 55 | 62 | 7.0 | 8.0 | 0.00 | 0.00 | 0.00 | 83 | 1017.8 |
| 20260507042028 | 55 | 46 | 7.0 | 9.0 | 0.00 | 0.00 | 0.00 | 82 | 1017.8 |
| 20260507041528 | 55 | 55 | 6.0 | 9.0 | 0.00 | 0.00 | 0.00 | 81 | 1017.8 |
| 20260507041028 | 55 | 54 | 7.0 | 9.0 | 0.00 | 0.00 | 0.00 | 81 | 1017.8 |
| 20260507040528 | 55 | 56 | 9.0 | 9.0 | 0.00 | 0.00 | 0.00 | 81 | 1017.7 |
| 20260507040028 | 56 | 60 | 6.0 | 8.0 | 0.00 | 0.00 | 0.00 | 80 | 1017.7 |
| 20260507035028 | 56 | 64 | 7.0 | 8.0 | 0.00 | 0.00 | 0.00 | 79 | 1017.6 |
| 20260507034028 | 57 | 59 | 7.0 | 9.0 | 0.00 | 0.00 | 0.00 | 77 | 1017.6 |
| 20260507033528 | 57 | 53 | 8.0 | 9.0 | 0.00 | 0.00 | 0.00 | 77 | 1017.6 |
| 20260507033028 | 57 | 63 | 8.0 | 10.0 | 0.00 | 0.00 | 0.00 | 76 | 1017.6 |
| 20260507032528 | 57 | 45 | 7.0 | 11.0 | 0.00 | 0.00 | 0.00 | 76 | 1017.6 |
| 20260507031028 | 58 | 46 | 7.0 | 14.0 | 0.00 | 0.00 | 0.00 | 75 | 1017.5 |
| 20260507030028 | 58 | 33 | 9.0 | 10.0 | 0.00 | 0.00 | 0.00 | 75 | 1017.4 |
| 20260507025528 | 58 | 43 | 9.0 | 11.0 | 0.00 | 0.00 | 0.00 | 75 | 1017.4 |
| 20260507025028 | 58 | 35 | 9.0 | 13.0 | 0.00 | 0.00 | 0.00 | 75 | 1017.4 |
| 20260507024528 | 58 | 39 | 9.0 | 13.0 | 0.00 | 0.00 | 0.00 | 74 | 1017.4 |
| 20260507023528 | 58 | 30 | 11.0 | 17.0 | 0.00 | 0.00 | 0.00 | 74 | 1017.2 |
| 20260507022029 | 59 | 36 | 9.0 | 16.0 | 0.00 | 0.00 | 0.00 | 73 | 1017.1 |
| 20260507021528 | 59 | 35 | 9.0 | 15.0 | 0.00 | 0.00 | 0.00 | 73 | 1017.1 |
| 20260507021028 | 59 | 30 | 14.0 | 15.0 | 0.00 | 0.00 | 0.00 | 73 | 1017.0 |
| 20260507020528 | 59 | 37 | 10.0 | 16.0 | 0.00 | 0.00 | 0.00 | 73 | 1016.9 |
| 20260507015528 | 59 | 33 | 9.0 | 18.0 | 0.00 | 0.00 | 0.00 | 72 | 1016.7 |
| 20260507015028 | 59 | 34 | 18.0 | 18.0 | 0.00 | 0.00 | 0.00 | 71 | 1016.5 |
| 20260507014528 | 59 | 25 | 17.0 | 17.0 | 0.00 | 0.00 | 0.00 | 72 | 1016.3 |
| 20260507014028 | 59 | 25 | 15.0 | 18.0 | 0.00 | 0.00 | 0.00 | 71 | 1016.3 |
| 20260507013529 | 59 | 23 | 10.0 | 18.0 | 0.00 | 0.00 | 0.00 | 71 | 1016.2 |
| 20260507013028 | 59 | 19 | 10.0 | 19.0 | 0.00 | 0.00 | 0.00 | 71 | 1016.0 |
| 20260507012528 | 59 | 24 | 15.0 | 19.0 | 0.00 | 0.00 | 0.00 | 71 | 1015.8 |
| 20260507012028 | 59 | 20 | 18.0 | 18.0 | 0.00 | 0.00 | 0.00 | 72 | 1015.7 |
| 20260507011528 | 60 | 16 | 13.0 | 18.0 | 0.00 | 0.00 | 0.00 | 71 | 1015.6 |
| 20260507010528 | 60 | 1 | 13.0 | 17.0 | 0.00 | 0.00 | 0.00 | 71 | 1015.5 |
| 20260507010028 | 60 | 18 | 13.0 | 16.0 | 0.00 | 0.00 | 0.00 | 71 | 1015.4 |
| 20260507005528 | 60 | 19 | 11.0 | 19.0 | 0.00 | 0.00 | 0.00 | 71 | 1015.4 |
| 20260507005028 | 60 | 23 | 15.0 | 19.0 | 0.00 | 0.00 | 0.00 | 70 | 1015.3 |
| 20260507004528 | 61 | 13 | 13.0 | 18.0 | 0.00 | 0.00 | 0.00 | 70 | 1015.3 |
| 20260507003029 | 62 | 12 | 12.0 | 15.0 | 0.00 | 0.00 | 0.00 | 70 | 1015.2 |
| 20260507002528 | 62 | 22 | 9.0 | 13.0 | 0.00 | 0.00 | 0.00 | 70 | 1015.1 |
| 20260507001528 | 62 | 32 | 8.0 | 16.0 | 0.00 | 0.00 | 0.00 | 69 | 1014.9 |
| 20260507000528 | 62 | 9 | 11.0 | 15.0 | 0.00 | 0.00 | 0.00 | 68 | 1014.7 |
| 20260507000028 | 62 | 22 | 12.0 | 16.0 | 0.00 | 0.00 | 0.00 | 68 | 1014.8 |
| 20260506235528 | 62 | 16 | 14.0 | 17.0 | 0.00 | 0.00 | 0.00 | 68 | 1014.8 |
| 20260506235028 | 62 | 10 | 12.0 | 17.0 | 0.00 | 0.00 | 0.00 | 68 | 1014.7 |
| 20260506234028 | 62 | 7 | 10.0 | 18.0 | 0.00 | 0.00 | 0.00 | 68 | 1014.6 |
| 20260506233528 | 62 | 7 | 14.0 | 18.0 | 0.00 | 0.00 | 0.00 | 67 | 1014.5 |
| 20260506233028 | 63 | 9 | 12.0 | 16.0 | 0.00 | 0.00 | 0.00 | 67 | 1014.5 |
| 20260506232528 | 63 | 10 | 15.0 | 19.0 | 0.00 | 0.00 | 0.00 | 66 | 1014.5 |
| 20260506232028 | 63 | 37 | 12.0 | 19.0 | 0.00 | 0.00 | 0.00 | 67 | 1014.5 |
| 20260506231528 | 63 | 25 | 9.0 | 18.0 | 0.00 | 0.00 | 0.00 | 67 | 1014.4 |
| 20260506231028 | 64 | 12 | 13.0 | 18.0 | 0.00 | 0.00 | 0.00 | 66 | 1014.2 |
| 20260506230028 | 64 | 3 | 15.0 | 16.0 | 0.00 | 0.00 | 0.00 | 64 | 1014.2 |
| 20260506225528 | 64 | 14 | 9.0 | 17.0 | 0.00 | 0.00 | 0.00 | 65 | 1014.2 |
| 20260506225029 | 64 | 4 | 10.0 | 17.0 | 0.00 | 0.00 | 0.00 | 64 | 1014.2 |
| 20260506224528 | 64 | 4 | 11.0 | 19.0 | 0.00 | 0.00 | 0.00 | 64 | 1014.1 |
| 20260506223528 | 65 | 31 | 16.0 | 18.0 | 0.00 | 0.00 | 0.00 | 62 | 1013.9 |
| 20260506223028 | 65 | 39 | 15.0 | 16.0 | 0.00 | 0.00 | 0.00 | 62 | 1013.9 |
| 20260506222530 | 66 | 11 | 9.0 | 17.0 | 0.00 | 0.00 | 0.00 | 62 | 1014.0 |
| 20260506222028 | 65 | 17 | 13.0 | 17.0 | 0.00 | 0.00 | 0.00 | 62 | 1013.9 |
| 20260506221528 | 66 | 5 | 11.0 | 16.0 | 0.00 | 0.00 | 0.00 | 62 | 1013.9 |
| 20260506221028 | 65 | 348 | 11.0 | 17.0 | 0.00 | 0.00 | 0.00 | 62 | 1014.0 |
| 20260506220528 | 65 | 2 | 11.0 | 17.0 | 0.00 | 0.00 | 0.00 | 62 | 1013.9 |
| 20260506220028 | 65 | 358 | 11.0 | 16.0 | 0.00 | 0.00 | 0.00 | 62 | 1013.7 |
| 20260506215528 | 66 | 341 | 11.0 | 17.0 | 0.00 | 0.00 | 0.00 | 61 | 1013.7 |
| 20260506214528 | 66 | 2 | 16.0 | 18.0 | 0.00 | 0.00 | 0.00 | 61 | 1013.7 |
| 20260506214028 | 65 | 34 | 15.0 | 18.0 | 0.00 | 0.00 | 0.00 | 62 | 1013.7 |
| 20260506213528 | 65 | 23 | 13.0 | 15.0 | 0.00 | 0.00 | 0.00 | 62 | 1014.1 |
| 20260506213029 | 65 | 32 | 11.0 | 13.0 | 0.00 | 0.00 | 0.00 | 63 | 1014.2 |
| 20260506212028 | 65 | 357 | 9.0 | 15.0 | 0.00 | 0.00 | 0.00 | 63 | 1014.1 |
| 20260506211530 | 65 | 33 | 13.0 | 15.0 | 0.00 | 0.00 | 0.00 | 63 | 1014.0 |
| 20260506210528 | 64 | 25 | 10.0 | 15.0 | 0.00 | 0.00 | 0.00 | 63 | 1014.0 |
| 20260506210028 | 65 | 34 | 12.0 | 13.0 | 0.00 | 0.00 | 0.00 | 63 | 1014.0 |
| 20260506205528 | 65 | 347 | 9.0 | 13.0 | 0.00 | 0.00 | 0.00 | 62 | 1014.0 |
| 20260506205028 | 65 | 9 | 13.0 | 16.0 | 0.00 | 0.00 | 0.00 | 62 | 1014.1 |
| 20260506204528 | 64 | 3 | 7.0 | 16.0 | 0.00 | 0.00 | 0.00 | 63 | 1014.3 |
| 20260506204028 | 65 | 13 | 11.0 | 16.0 | 0.00 | 0.00 | 0.00 | 61 | 1014.3 |
| 20260506203528 | 64 | 68 | 5.0 | 15.0 | 0.00 | 0.00 | 0.00 | 62 | 1014.4 |
| 20260506202528 | 63 | 94 | 3.0 | 14.0 | 0.00 | 0.00 | 0.00 | 63 | 1014.6 |
| 20260506202028 | 63 | 56 | 10.0 | 15.0 | 0.00 | 0.00 | 0.00 | 64 | 1014.6 |
| 20260506201029 | 63 | 59 | 12.0 | 15.0 | 0.00 | 0.00 | 0.00 | 63 | 1014.7 |
| 20260506200528 | 64 | 70 | 8.0 | 15.0 | 0.00 | 0.00 | 0.00 | 63 | 1014.7 |
| 20260506200028 | 63 | 57 | 8.0 | 14.0 | 0.00 | 0.00 | 0.00 | 64 | 1014.7 |
| 20260506195528 | 63 | 31 | 13.0 | 14.0 | 0.00 | 0.00 | 0.00 | 64 | 1014.7 |
| 20260506195028 | 62 | 35 | 11.0 | 14.0 | 0.00 | 0.00 | 0.00 | 65 | 1014.9 |
| 20260506194028 | 63 | 17 | 3.0 | 17.0 | 0.00 | 0.00 | 0.00 | 63 | 1015.0 |
| 20260506193529 | 63 | 35 | 11.0 | 17.0 | 0.00 | 0.00 | 0.00 | 64 | 1014.9 |
| 20260506193028 | 62 | 29 | 9.0 | 17.0 | 0.00 | 0.00 | 0.00 | 64 | 1014.8 |
| 20260506192530 | 62 | 60 | 14.0 | 17.0 | 0.00 | 0.00 | 0.00 | 65 | 1014.6 |
| 20260506192028 | 63 | 26 | 13.0 | 21.0 | 0.00 | 0.00 | 0.00 | 65 | 1014.4 |
| 20260506191529 | 62 | 17 | 10.0 | 21.0 | 0.00 | 0.00 | 0.00 | 67 | 1014.1 |
| 20260506191032 | 62 | 60 | 14.0 | 18.0 | 0.00 | 0.00 | 0.00 | 66 | 1014.0 |
| 20260506190531 | 62 | 25 | 14.0 | 18.0 | 0.00 | 0.00 | 0.00 | 65 | 1014.1 |
| 20260506190028 | 61 | 34 | 12.0 | 17.0 | 0.00 | 0.00 | 0.00 | 66 | 1014.2 |
| 20260506185528 | 61 | 15 | 16.0 | 19.0 | 0.00 | 0.00 | 0.00 | 68 | 1014.3 |
| 20260506185028 | 60 | 30 | 15.0 | 19.0 | 0.00 | 0.00 | 0.00 | 67 | 1014.5 |
| 20260506184529 | 61 | 16 | 12.0 | 19.0 | 0.00 | 0.00 | 0.00 | 67 | 1014.5 |
| 20260506184028 | 61 | 49 | 19.0 | 20.0 | 0.00 | 0.00 | 0.00 | 68 | 1014.5 |
| 20260506183029 | 61 | 19 | 17.0 | 20.0 | 0.00 | 0.00 | 0.00 | 65 | 1014.4 |
| 20260506182528 | 61 | 356 | 10.0 | 20.0 | 0.00 | 0.00 | 0.00 | 66 | 1014.5 |
| 20260506182029 | 60 | 350 | 10.0 | 19.0 | 0.00 | 0.00 | 0.00 | 66 | 1014.5 |
| 20260506181528 | 60 | 18 | 12.0 | 21.0 | 0.00 | 0.00 | 0.00 | 67 | 1014.3 |
| 20260506181028 | 59 | 40 | 13.0 | 21.0 | 0.00 | 0.00 | 0.00 | 71 | 1014.4 |
| 20260506180529 | 60 | 24 | 14.0 | 18.0 | 0.00 | 0.00 | 0.00 | 69 | 1014.4 |
| 20260506175028 | 59 | 27 | 16.0 | 22.0 | 0.00 | 0.00 | 0.00 | 69 | 1014.3 |
| 20260506174528 | 59 | 24 | 13.0 | 22.0 | 0.00 | 0.00 | 0.00 | 69 | 1014.7 |
| 20260506173528 | 57 | 61 | 16.0 | 25.0 | 0.00 | 0.00 | 0.00 | 71 | 1014.6 |
| 20260506173028 | 58 | 34 | 16.0 | 24.0 | 0.00 | 0.00 | 0.00 | 69 | 1014.9 |
| 20260506172529 | 57 | 35 | 11.0 | 24.0 | 0.00 | 0.00 | 0.00 | 72 | 1014.9 |
| 20260506172028 | 56 | 41 | 15.0 | 22.0 | 0.00 | 0.00 | 0.00 | 73 | 1015.1 |
| 20260506171528 | 56 | 23 | 18.0 | 22.0 | 0.00 | 0.00 | 0.00 | 72 | 1014.9 |
| 20260506171028 | 56 | 32 | 17.0 | 22.0 | 0.00 | 0.00 | 0.00 | 72 | 1015.0 |
| 20260506170528 | 56 | 36 | 15.0 | 18.0 | 0.00 | 0.00 | 0.00 | 72 | 1015.1 |
| 20260506170029 | 55 | 35 | 13.0 | 20.0 | 0.00 | 0.00 | 0.00 | 75 | 1015.2 |
| 20260506165028 | 54 | 34 | 19.0 | 22.0 | 0.00 | 0.00 | 0.00 | 75 | 1015.0 |
| 20260506164028 | 54 | 23 | 15.0 | 18.0 | 0.00 | 0.00 | 0.00 | 77 | 1015.0 |
| 20260506163528 | 54 | 30 | 13.0 | 21.0 | 0.00 | 0.00 | 0.00 | 76 | 1015.1 |
| 20260506163028 | 54 | 26 | 21.0 | 21.0 | 0.00 | 0.00 | 0.00 | 76 | 1015.0 |
| 20260506162528 | 54 | 15 | 14.0 | 19.0 | 0.00 | 0.00 | 0.00 | 77 | 1015.2 |
| 20260506161529 | 54 | 15 | 17.0 | 21.0 | 0.00 | 0.00 | 0.00 | 75 | 1015.1 |
| 20260506161029 | 54 | 11 | 16.0 | 21.0 | 0.00 | 0.00 | 0.00 | 76 | 1015.0 |
| 20260506160528 | 54 | 20 | 19.0 | 19.0 | 0.00 | 0.00 | 0.00 | 76 | 1014.9 |
| 20260506160030 | 53 | 19 | 17.0 | 18.0 | 0.00 | 0.00 | 0.00 | 76 | 1015.0 |
| 20260506155028 | 54 | 16 | 11.0 | 18.0 | 0.00 | 0.00 | 0.00 | 77 | 1015.0 |
| 20260506154529 | 53 | 11 | 16.0 | 18.0 | 0.00 | 0.00 | 0.00 | 77 | 1015.2 |
| 20260506154029 | 53 | 13 | 13.0 | 15.0 | 0.00 | 0.00 | 0.00 | 79 | 1015.6 |
| 20260506153529 | 53 | 5 | 12.0 | 13.0 | 0.00 | 0.00 | 0.00 | 78 | 1016.0 |
| 20260506152959 | 53 | 7 | 7.0 | 10.0 | 0.00 | 0.00 | 0.00 | 79 | 1016.5 |
| 20260506151959 | 53 | 31 | 6.0 | 8.0 | 0.00 | 0.00 | 0.00 | 80 | 1016.9 |
| 20260506151458 | 53 | 36 | 7.0 | 11.0 | 0.00 | 0.00 | 0.00 | 79 | 1017.1 |
| 20260506150958 | 53 | 42 | 4.0 | 15.0 | 0.00 | 0.00 | 0.00 | 79 | 1017.0 |
| 20260506150458 | 53 | 41 | 8.0 | 17.0 | 0.00 | 0.00 | 0.00 | 79 | 1016.2 |
| 20260506150028 | 53 | 7 | 13.0 | 17.0 | 0.00 | 0.00 | 0.00 | 79 | 1015.2 |
| 20260506145529 | 53 | 17 | 15.0 | 17.0 | 0.00 | 0.00 | 0.00 | 79 | 1015.0 |
| 20260506144958 | 53 | 31 | 8.0 | 15.0 | 0.00 | 0.00 | 0.00 | 81 | 1015.2 |
| 20260506144458 | 53 | 24 | 8.0 | 15.0 | 0.00 | 0.00 | 0.00 | 81 | 1015.3 |
| 20260506143959 | 52 | 37 | 9.0 | 15.0 | 0.00 | 0.00 | 0.00 | 81 | 1015.1 |
| 20260506143459 | 52 | 24 | 12.0 | 15.0 | 0.00 | 0.00 | 0.00 | 81 | 1015.4 |
| 20260506142959 | 52 | 26 | 10.0 | 16.0 | 0.00 | 0.00 | 0.00 | 81 | 1015.4 |
| 20260506142459 | 52 | 30 | 12.0 | 16.0 | 0.00 | 0.00 | 0.00 | 81 | 1015.3 |
| 20260506141959 | 52 | 13 | 11.0 | 13.0 | 0.00 | 0.00 | 0.00 | 81 | 1015.3 |
| 20260506141458 | 52 | 12 | 10.0 | 14.0 | 0.00 | 0.00 | 0.00 | 82 | 1015.3 |
| 20260506140958 | 52 | 6 | 8.0 | 14.0 | 0.00 | 0.00 | 0.00 | 83 | 1015.4 |
| 20260506140458 | 52 | 13 | 11.0 | 13.0 | 0.00 | 0.00 | 0.00 | 83 | 1015.5 |
| 20260506140033 | 52 | 29 | 8.0 | 16.0 | 0.00 | 0.00 | 0.00 | 84 | 1015.4 |
| 20260506135458 | 51 | 27 | 8.0 | 16.0 | 0.00 | 0.00 | 0.00 | 85 | 1015.1 |
| 20260506135029 | 51 | 37 | 14.0 | 16.0 | 0.00 | 0.00 | 0.00 | 87 | 1014.7 |
| 20260506134458 | 51 | 6 | 14.0 | 17.0 | 0.00 | 0.00 | 0.00 | 88 | 1014.6 |
| 20260506133958 | 51 | 17 | 8.0 | 17.0 | 0.00 | 0.00 | 0.00 | 90 | 1014.5 |
| 20260506133458 | 51 | 13 | 16.0 | 17.0 | 0.00 | 0.00 | 0.00 | 89 | 1014.2 |
| 20260506133029 | 51 | 10 | 12.0 | 14.0 | 0.00 | 0.00 | 0.00 | 91 | 1014.5 |
| 20260506132458 | 51 | 0 | 9.0 | 15.0 | 0.00 | 0.00 | 0.00 | 91 | 1014.5 |
| 20260506131959 | 50 | 3 | 13.0 | 15.0 | 0.00 | 0.00 | 0.00 | 91 | 1014.6 |
| 20260506131459 | 50 | 9 | 11.0 | 15.0 | 0.00 | 0.00 | 0.00 | 92 | 1014.5 |
| 20260506130959 | 50 | 5 | 8.0 | 15.0 | 0.00 | 0.00 | 0.00 | 93 | 1014.5 |
| 20260506130459 | 50 | 8 | 11.0 | 15.0 | 0.00 | 0.00 | 0.00 | 93 | 1014.1 |
| 20260506125958 | 50 | 0 | 8.0 | 14.0 | 0.00 | 0.00 | 0.00 | 93 | 1014.4 |
| 20260506125459 | 50 | 22 | 10.0 | 14.0 | 0.00 | 0.00 | 0.00 | 93 | 1014.1 |
| 20260506124959 | 50 | 352 | 8.0 | 14.0 | 0.00 | 0.00 | 0.00 | 94 | 1014.1 |
| 20260506124458 | 50 | 3 | 10.0 | 18.0 | 0.00 | 0.00 | 0.00 | 94 | 1014.0 |
| 20260506123958 | 50 | 15 | 12.0 | 18.0 | 0.00 | 0.00 | 0.00 | 94 | 1014.0 |
| 20260506123458 | 50 | 4 | 14.0 | 14.0 | 0.00 | 0.00 | 0.00 | 93 | 1013.9 |
| 20260506122958 | 50 | 355 | 10.0 | 15.0 | 0.00 | 0.00 | 0.00 | 93 | 1014.0 |
| 20260506122500 | 50 | 0 | 13.0 | 16.0 | 0.00 | 0.00 | 0.00 | 92 | 1013.7 |
| 20260506121958 | 50 | 9 | 12.0 | 16.0 | 0.00 | 0.00 | 0.00 | 92 | 1013.9 |
| 20260506121459 | 50 | 10 | 11.0 | 16.0 | 0.00 | 0.00 | 0.00 | 91 | 1013.7 |
| 20260506120958 | 50 | 359 | 10.0 | 16.0 | 0.00 | 0.00 | 0.00 | 92 | 1013.9 |
| 20260506120459 | 50 | 6 | 10.0 | 15.0 | 0.00 | 0.00 | 0.00 | 91 | 1013.8 |
| 20260506115958 | 50 | 11 | 13.0 | 15.0 | 0.00 | 0.00 | 0.00 | 91 | 1013.9 |
| 20260506115459 | 50 | 12 | 11.0 | 16.0 | 0.00 | 0.00 | 0.00 | 92 | 1013.7 |
| 20260506114458 | 50 | 358 | 13.0 | 14.0 | 0.00 | 0.00 | 0.00 | 92 | 1013.7 |
| 20260506113958 | 50 | 21 | 11.0 | 14.0 | 0.00 | 0.00 | 0.00 | 93 | 1013.5 |
| 20260506113459 | 50 | 358 | 9.0 | 14.0 | 0.00 | 0.00 | 0.00 | 93 | 1013.4 |
| 20260506112959 | 50 | 17 | 10.0 | 14.0 | 0.00 | 0.00 | 0.00 | 93 | 1013.3 |
| 20260506112459 | 50 | 10 | 9.0 | 16.0 | 0.00 | 0.00 | 0.00 | 94 | 1013.2 |
| 20260506111958 | 50 | 8 | 14.0 | 16.0 | 0.00 | 0.00 | 0.00 | 93 | 1013.1 |
| 20260506110958 | 50 | 3 | 9.0 | 20.0 | 0.00 | 0.00 | 0.00 | 93 | 1012.8 |
| 20260506110458 | 50 | 1 | 14.0 | 20.0 | 0.00 | 0.00 | 0.00 | 92 | 1013.0 |
| 20260506105959 | 50 | 359 | 14.0 | 19.0 | 0.00 | 0.00 | 0.00 | 92 | 1013.0 |
| 20260506105458 | 50 | 0 | 14.0 | 20.0 | 0.00 | 0.00 | 0.00 | 91 | 1012.8 |
| 20260506104958 | 51 | 357 | 12.0 | 21.0 | 0.00 | 0.00 | 0.00 | 89 | 1012.7 |
| 20260506104458 | 51 | 353 | 18.0 | 21.0 | 0.00 | 0.00 | 0.00 | 87 | 1012.7 |
| 20260506104029 | 51 | 357 | 15.0 | 20.0 | 0.00 | 0.00 | 0.00 | 86 | 1012.5 |
| 20260506103458 | 52 | 346 | 11.0 | 17.0 | 0.00 | 0.00 | 0.00 | 82 | 1012.6 |
| 20260506102959 | 52 | 6 | 10.0 | 17.0 | 0.00 | 0.00 | 0.00 | 81 | 1012.7 |
| 20260506102459 | 53 | 13 | 11.0 | 17.0 | 0.00 | 0.00 | 0.00 | 80 | 1012.5 |
| 20260506101959 | 53 | 358 | 16.0 | 18.0 | 0.00 | 0.00 | 0.00 | 79 | 1012.4 |
| 20260506100958 | 53 | 5 | 13.0 | 16.0 | 0.00 | 0.00 | 0.00 | 78 | 1012.4 |
| 20260506095959 | 53 | 4 | 12.0 | 17.0 | 0.00 | 0.00 | 0.00 | 77 | 1012.2 |
| 20260506095458 | 53 | 355 | 12.0 | 17.0 | 0.00 | 0.00 | 0.00 | 77 | 1012.2 |
| 20260506094959 | 53 | 0 | 17.0 | 17.0 | 0.00 | 0.00 | 0.00 | 76 | 1011.9 |
| 20260506094459 | 53 | 356 | 14.0 | 16.0 | 0.00 | 0.00 | 0.00 | 77 | 1012.0 |
| 20260506093958 | 54 | 1 | 12.0 | 14.0 | 0.00 | 0.00 | 0.00 | 77 | 1012.0 |
| 20260506093459 | 54 | 359 | 12.0 | 14.0 | 0.00 | 0.00 | 0.00 | 78 | 1011.7 |
| 20260506092958 | 54 | 15 | 9.0 | 17.0 | 0.00 | 0.00 | 0.00 | 78 | 1011.5 |
| 20260506092459 | 54 | 10 | 13.0 | 17.0 | 0.00 | 0.00 | 0.00 | 77 | 1011.4 |
| 20260506092029 | 54 | 17 | 13.0 | 16.0 | 0.00 | 0.00 | 0.00 | 77 | 1011.3 |
| 20260506091459 | 54 | 357 | 11.0 | 16.0 | 0.00 | 0.00 | 0.00 | 77 | 1011.4 |
| 20260506090959 | 54 | 12 | 13.0 | 15.0 | 0.00 | 0.00 | 0.00 | 76 | 1011.2 |
| 20260506090529 | 54 | 20 | 9.0 | 15.0 | 0.00 | 0.00 | 0.00 | 77 | 1011.3 |
| 20260506085958 | 54 | 14 | 14.0 | 16.0 | 0.00 | 0.00 | 0.00 | 77 | 1011.1 |
| 20260506085458 | 54 | 11 | 15.0 | 17.0 | 0.00 | 0.00 | 0.00 | 76 | 1011.1 |
| 20260506084958 | 54 | 8 | 8.0 | 17.0 | 0.00 | 0.00 | 0.00 | 77 | 1011.2 |
| 20260506084459 | 54 | 2 | 11.0 | 16.0 | 0.00 | 0.00 | 0.00 | 77 | 1011.2 |
| 20260506083459 | 54 | 9 | 9.0 | 15.0 | 0.00 | 0.00 | 0.00 | 78 | 1011.0 |
| 20260506082459 | 55 | 357 | 6.0 | 13.0 | 0.00 | 0.00 | 0.00 | 79 | 1011.1 |
| 20260506081959 | 55 | 13 | 11.0 | 13.0 | 0.00 | 0.00 | 0.00 | 78 | 1011.1 |
| 20260506081459 | 55 | 1 | 7.0 | 13.0 | 0.00 | 0.00 | 0.00 | 78 | 1011.1 |
| 20260506080459 | 55 | 2 | 12.0 | 14.0 | 0.00 | 0.00 | 0.00 | 79 | 1011.1 |
| 20260506073459 | 55 | 13 | 10.0 | 14.0 | 0.00 | 0.00 | 0.00 | 79 | 1011.1 |
| 20260506072959 | 55 | 18 | 14.0 | 14.0 | 0.00 | 0.00 | 0.00 | 78 | 1011.0 |
| 20260506072459 | 55 | 20 | 10.0 | 14.0 | 0.00 | 0.00 | 0.00 | 79 | 1010.9 |
| 20260506071959 | 55 | 16 | 9.0 | 15.0 | 0.00 | 0.00 | 0.00 | 80 | 1010.8 |
| 20260506071459 | 55 | 54 | 14.0 | 16.0 | 0.00 | 0.00 | 0.00 | 78 | 1010.3 |
| 20260506071000 | 55 | 53 | 11.0 | 18.0 | 0.00 | 0.00 | 0.00 | 79 | 1010.2 |
| 20260506070459 | 55 | 61 | 14.0 | 18.0 | 0.00 | 0.00 | 0.00 | 79 | 1010.2 |
| 20260506062459 | 55 | 23 | 11.0 | 15.0 | 0.00 | 0.00 | 0.00 | 80 | 1010.7 |
| 20260506061959 | 55 | 14 | 10.0 | 16.0 | 0.00 | 0.00 | 0.00 | 79 | 1010.8 |
| 20260506061459 | 56 | 25 | 14.0 | 18.0 | 0.00 | 0.00 | 0.00 | 80 | 1010.6 |
| 20260506060959 | 55 | 8 | 16.0 | 18.0 | 0.00 | 0.00 | 0.00 | 79 | 1010.4 |
| 20260506060459 | 56 | 35 | 14.0 | 18.0 | 0.00 | 0.00 | 0.00 | 80 | 1010.5 |
| 20260506050959 | 57 | 0 | 13.0 | 17.0 | 0.00 | 0.00 | 0.00 | 80 | 1010.8 |
| 20260506050459 | 57 | 7 | 14.0 | 17.0 | 0.00 | 0.00 | 0.00 | 80 | 1010.8 |